Location: Misciano
(43.5000°N, 11.9500°E)
Time: 07:15:39
(UTC+00:00)

USA 238 DEB - Pass Details

Date: 13 August 2020
Orbit: 1006 x 1206 km, 63.4° (Epoch: 19 September)

Event Time Altitude Azimuth Distance (km) Brightness Sun altitude
Rises 20:26:18 0° 231° (SW) 3,737 6.6 -20.3°
Reaches altitude 10° 20:28:56 10° 236° (SW) 2,803 6.0 -20.6°
Maximum altitude 20:35:23 55° 313° (NW) 1,248 4.4 -21.4°
Drops below altitude 10° 20:42:09 10° 31° (NNE) 2,931 6.2 -22.2°
Sets 20:44:57 0° 36° (NE) 3,921 6.8 -22.6°
